Location: Wildcat Hills Observatory
(41.6350°N, 103.6812°W)
Time: 17:30:47
(UTC-06:00)

Cosmos 1634 Rocket - Visible Passes

Search period start: 23 April 2017 00:00
Search period end: 03 May 2017 00:00
Orbit: 961 x 991 km, 82.9° (Epoch: 22 April)

Date Brightness Start Highest point End Pass type
(mag) Time Alt. Az. Time Alt. Az. Time Alt. Az.
23 Apr 4.3 20:15:35 10° SSE 20:21:30 46° E 20:27:29 10° NNE visible
23 Apr 5.9 22:01:47 10° SW 22:07:05 28° WNW 22:12:26 10° NNW visible
24 Apr 4.0 20:40:39 10° S 20:46:55 82° E 20:53:17 10° N visible
24 Apr 6.7 22:29:26 10° WSW 22:33:07 16° WNW 22:36:49 10° NNW visible
25 Apr 4.7 21:06:21 10° SSW 21:12:31 57° W 21:18:46 10° N visible
26 Apr 5.8 21:32:45 10° SW 21:38:18 32° WNW 21:43:56 10° N visible
27 Apr 4.0 20:12:00 10° S 20:18:15 71° E 20:24:34 10° NNE visible
27 Apr 6.6 22:00:04 10° WSW 22:04:17 18° WNW 22:08:32 10° NNW visible
28 Apr 4.5 20:37:33 10° SSW 20:43:48 66° W 20:50:08 10° N visible
29 Apr 5.6 21:03:46 10° SW 21:09:32 37° WNW 21:15:22 10° N visible
30 Apr 6.6 21:30:49 10° WSW 21:35:28 21° WNW 21:40:10 10° NNW visible
01 May 7.1 21:59:36 10° W 22:01:36 11° WNW 22:03:38 10° NW visible
02 May 5.5 20:34:50 10° SSW 20:40:47 43° WNW 20:46:47 10° N visible
